Location: Fort Worth, Tx
(32.7431°N, 97.3695°W)
Time: 15:59:37
(UTC-04:00)

A-11 Canister half - Pass Details

Date: 25 February 2024
Orbit: 1525 x 1683 km, 47.3° (Epoch: 21 April)

Event Time Altitude Azimuth Distance (km) Brightness Sun altitude
Rises 23:12:28 0° 263° (W) 4,767 12.1 -48.0°
Reaches altitude 10° 23:15:51 10° 271° (W) 3,761 11.5 -48.6°
Enters shadow 23:22:04 36° 305° (NW) 2,284 10.0 -49.8°
